STARLINK-31862, 59786

Orbit data source: Space-Track

STARLINK-31862, 59786 is a payload satellite owned by SpaceX/Seattle (US) in LEO that was launched on Sat, 18 May 2024 UTC via an FALCON 9 launch vehicle from the Air Force Eastern Test Range (AFETR). Payload-class satellites include a variety of spacecraft equipped with specific instruments for various scientific and technological missions. These include communications satellites like Starlink; space stations such as the ISS; scientific satellites like the Hubble; Earth observation satellites from companies like Planet Labs, Umbra, and HawkEye 360; GPS; miniature CubeSats for education and research; and military/defense satellites.

Loading next visibility...
Identifier
59786, 2024-093E
Orbit
LEO
Last TLE update
1 day ago
Origin
Manufacturer
SpaceX/Seattle
Mission
Operational spacecraft
Bus & Motor
STARLINK V2M, Unknown motor
Mass
730 kg wet, ~700 kg dry
Launch date (UTC)
2024-05-18 (1 year ago)
Launch vehicle
FALCON 9
Launch site
Air Force Eastern Test Range (AFETR)
Object type
Payload
Rocket body
Debris
Shape & HBR
Unknown
Radar Cross Section
Large (>1 m²)

Expand to show TLE details & history

TLE from 1 day ago
0 STARLINK-31862
1 59786U 24093E   25181.06490795 -.00001376  00000-0 -40495-4 0  9995
2 59786  43.0004 195.2501 0001051 273.0840  86.9891 15.27578324 64063
Epoch: 2025-06-30T01:33Z
TLE epoch observation values (Epoch: 2025-06-30T01:33:28.046Z)
Latitude
-0.00006°
Longitude
-106.49689°
Altitude
482.792 km
Speed
7.626 km/s
True Right ascension
13h 01m 00s
True Declination
0° 00' 00"
Sunlit
Object was in daylight at epoch
Visualization orbit readout
Latitude
-35.04912°
Longitude
115.03554°
Altitude
492.563 km
Speed
7.619 km/s
Apparent Right ascension
05h 01m 46s
Apparent Declination
-38° 57' 22"
Sunlit
Object is in daylight
Visualization observer readout
Local Sidereal Time
18:28:05
Azimuth
93.645° ESE
Elevation
-73.346°
Doppler factor
1
Orbital elements
Apogee altitude
485.721 km
Perigee altitude
484.278 km
Semi-major axis
6,863.136 km
Eccentricity
0.00011
Inclination
43.0004°
RAAN
195.2501°
Arg. of periapsis
273.084°
True anomaly
Unknown
Mean anomaly
86.9891°
Eccentric anomaly
Unknown
Mean motion
3.81733 °/min
Orbital period
94.31 mins
BSTAR
-0.000040495
Loading maneuver chart data...
Loading SW <> Apogee altitude chart data...
Loading historical data...
Loading historical data...
Loading historical data...
Loading historical data...
Loading historical data...
Loading historical data...
Loading historical data...

STARLINK-31862 Visibility forecast

Observer location: undefined°, undefined°

Span
Click to sort rows by Start time (UTC) header in descending order
Start Az.
Max El. time (UTC)
Max El. Az.
Max El.
End time (UTC)
End Az.
7 mins2025-07-01 07:45:14.539Z289.455° WNW2025-07-01 07:48:14.539Z335.676° NNW39.261°2025-07-01 07:52:14.539Z90.346° ESE
5 mins2025-07-01 09:25:14.539Z274.652° WNW2025-07-01 09:27:14.539Z227.871° WSW35.98°2025-07-01 09:30:14.539Z136.576° SSE
6 mins2025-07-02 04:00:14.539Z225.849° WSW2025-07-02 04:03:14.539Z123.086° SE36.691°2025-07-02 04:06:14.539Z77.831° E
6 mins2025-07-02 05:39:14.539Z276.208° WNW2025-07-02 05:41:14.539Z316.741° NNW38.506°2025-07-02 05:45:14.539Z71.167° E
|